Flag for South Korea Weather past 2 weeks in Seoul, South Korea

Now
66 °F

Mostly cloudy.


Feels Like: 66 °F
Forecast: 60 / 74 °F
Wind: 2 mph from Northwest

Location: Seoul / Kimp'O International Airport

Current Time: May 30, 2015 at 4:16:44 AM

Latest Report: May 30, 2015 at 3:00 AM


Visibility: N/A

Pressure: 29.68 "Hg

Humidity: 60%

Dew point: 52 °F

Location of SeoulLocation

Historic Weather in Seoul — Graph

°F

Seoul temperature yesterday

Maximum temperature yesterday: 82 °F (at 1:00 PM)
Minimum temperature yesterday: 61 °F (at 6:00 AM)
Average temperature yesterday: 72 °F

Past Weeks' High & Low Weather Summary

 TemperatureHumidityPressure
High86 °F (May 27, 2:00 PM)88% (May 15, 7:00 AM)29.98 "Hg (May 15, 7:00 AM)
Low46 °F (May 20, 3:00 AM)9% (May 17, 3:00 PM)29.59 "Hg (May 18, 7:00 PM)
Average65 °F49%29.81 "Hg
* Reported May 15 3:00 AM — May 30 3:00 AM, Seoul, Weather by CustomWeather, © 2015

Note: Actual official high and low records may vary slightly from our data, if they occured in-between our weather recording intervals... More about our weather records

Advertising

Seoul weather history for previous 24 hours

 ConditionsComfort  
Time TempWeatherWind HumidityBarometerVisibility
3:00 AM
Sat, May 30
66 °FMostly cloudy.2 mph60%29.68 "HgN/A
2:00 AM68 °FMostly cloudy.1 mph56%29.68 "HgN/A
1:00 AM66 °FMostly cloudy.1 mph56%29.71 "HgN/A
12:00 AM68 °FPassing clouds.3 mph49%29.71 "HgN/A
11:00 PM
Fri, May 29
70 °FPassing clouds.1 mph40%29.71 "HgN/A
10:00 PM70 °FPassing clouds.1 mph43%29.74 "HgN/A
9:00 PM70 °FPassing clouds.2 mph46%29.71 "HgN/A
8:00 PM70 °FPassing clouds.5 mph43%29.71 "HgN/A
7:00 PM72 °FPartly sunny.12 mph36%29.71 "HgN/A
6:00 PM77 °FPartly sunny.8 mph32%29.68 "HgN/A
5:00 PM81 °FPartly sunny.7 mph23%29.68 "HgN/A
4:00 PM81 °FPartly sunny.8 mph23%29.71 "HgN/A
3:00 PM81 °FPartly sunny.9 mph26%29.71 "HgN/A
2:00 PM82 °FPassing clouds.8 mph21%29.71 "HgN/A
1:00 PM82 °FSunny.10 mph23%29.74 "Hg10 mi
12:00 PM81 °FPassing clouds.7 mph23%29.74 "HgN/A
11:00 AM81 °FPassing clouds.6 mph23%29.77 "HgN/A
10:00 AM77 °FPassing clouds.3 mph28%29.77 "HgN/A
9:00 AM73 °FClear.2 mph41%29.80 "Hg6 mi
8:00 AM72 °FClear.3 mph44%29.80 "Hg6 mi
7:00 AM66 °FSunny.No wind52%29.80 "Hg10 mi
6:00 AM61 °FPassing clouds.3 mph68%29.80 "HgN/A
5:00 AM63 °FClear.No wind64%29.77 "Hg10 mi
4:00 AM63 °FClear.1 mph59%29.80 "Hg10 mi
Weather by CustomWeather, © 2015

See weather overviewHow to use our weather pages